Showing default

MBZ-SAT, 62626

Orbit data source: Space-Track

MBZ-SAT, 62626 is a payload satellite owned by Rashid Space Ctr (AE) in SSO that was launched on Tue, 14 Jan 2025 UTC via an FALCON 9 launch vehicle from the Air Force Western Test Range (AFWTR). Payload-class satellites include a variety of spacecraft equipped with specific instruments for various scientific and technological missions. These include communications satellites like Starlink; space stations such as the ISS; scientific satellites like the Hubble; Earth observation satellites from companies like Planet Labs, Umbra, and HawkEye 360; GPS; miniature CubeSats for education and research; and military/defense satellites.

Loading next visibility...
Identifier
62626, 2025-009T
Orbit
SSO
Country
Flag of AEAE / UAE
Related business
Manufacturer
Rashid Space Ctr
Mission
Operational Civil Imaging
Bus & Motor
MBZSAT, Unknown motor
Mass
750 kg wet, ~700 kg dry
Launch date (UTC)
2025-01-14 (8 months ago)
Launch vehicle
FALCON 9
Launch site
Air Force Western Test Range (AFWTR)
Object type
Payload
Rocket body
Debris
Shape & HBR
Hex Cyl + 4 Pan, 2.5 m
Radar Cross Section
14.173 m², Large (>1 m²)

Expand to show TLE details & history
Last TLE update: 1 day ago

TLE from 1 day ago
0 MBZ-SAT
1 62626U 25009T   25260.84112845  .00000064  00000-0  62323-5 0  9997
2 62626  97.4218 339.5772 0006257 186.7520 173.3632 15.19338784 37352
Epoch: 2025-09-17T20:11Z
TLE epoch observation values (Epoch: 2025-09-17T20:11:13.498Z)
Latitude
0.00005°
Longitude
39.75966°
Altitude
515.207 km
Speed
7.604 km/s
True Right ascension
22h 38m 18s
True Declination
0° 00' 00"
Sunlit
Object was in full shadow at epoch
Visualization orbit readout
Latitude
Unknown
Longitude
Unknown
Altitude
Unknown
Speed
Unknown
Apparent Right ascension
Unknown
Apparent Declination
Unknown
Sunlit
N/A
Visualization observer readout
Local Sidereal Time
19:57:08
Azimuth
Unknown
Elevation
Unknown
Doppler factor
Unknown
Orbital elements
Apogee altitude
509.112 km
Perigee altitude
500.498 km
Semi-major axis
6,882.942 km
Eccentricity
0.00063
Inclination
97.4218°
RAAN
339.5772°
Arg. of periapsis
186.752°
True anomaly
173.37148°
Mean anomaly
173.3632°
Eccentric anomaly
173.36734°
Mean motion
3.80086 °/min
Orbital period
94.72 mins
BSTAR
0.0000062323
Loading maneuver chart data...
Computing Atmospheric mass density...
Loading historical data...
Loading historical data...
Loading historical data...
Loading historical data...
Loading historical data...
Loading historical data...
Loading historical data...

Documentation

Showing up to 5 results
|